Weather History for Pratica di Mare, Italy

Change the Weather History Date:

Wednesday, October 17, 2012

  Actual Average Record
Temperature  
Mean Temperature 64 °F -  
Max Temperature 72 °F 66 °F 74 °F (2013)
Min Temperature 57 °F 50 °F 50 °F (2011)
Growing Degree Days 14 (Base 50)    
Moisture  
Dew Point 57 °F    
Average Humidity 73    
Maximum Humidity 88    
Minimum Humidity 54    
Precipitation  
Precipitation 0.00 in 0.16 in - ()
Sea Level Pressure  
Sea Level Pressure 30.17 in    
Wind  
Wind Speed 6 mph ()    
Max Wind Speed 10 mph    
Max Gust Speed -    
Visibility 7.8 miles    
Events      
Averages and records for this station are not official NWS values.
T = Trace of Precipitation, MM = Missing Value Source: Averaged Metar Reports

Daily Weather History Graph

Daily Weather History Graph

Search for Another Location

Airport:

Trip Planner

Search our weather history database for the weather conditions in past years. The results will help you decide how hot, cold, wet, or windy it might be!

Date:

Astronomy

Oct. 17, 2012 Rise Set
Actual Time 7:24 AM CEST 6:25 PM CEST
Civil Twilight 6:56 AM CEST 6:53 PM CEST
Nautical Twilight 6:24 AM CEST 7:25 PM CEST
Astronomical Twilight 5:52 AM CEST 7:57 PM CEST
Moon 9:41 AM CEST (10/17) 7:43 PM CEST (10/17)
Length of Visible Light 11h 56m
Length of Day
11h 00m
Waxing Crescent, 5% of the Moon is Illuminated
Oct 17
Waxing Crescent
Oct 22
First Quarter
Oct 29
Full
Nov 7
Last Quarter
Nov 13
New

Hourly Weather History & Observations

Time (CEST) Temp. Dew Point Humidity Pressure Visibility Wind Dir Wind Speed Gust Speed Precip Events Conditions
1:55 AM 60.8 °F 51.8 °F 72% 30.12 in 6.2 mi East 9.2 mph - N/A   Scattered Clouds
2:00 AM 60 °F 52 °F 68% 30.13 in 9 mi East 9.2 mph - -   Partly Cloudy
3:55 AM 60.8 °F 51.8 °F 72% 30.12 in 6.2 mi East 5.8 mph - N/A   Scattered Clouds
6:55 AM 60.8 °F 53.6 °F 77% 30.12 in 6.2 mi East 8.1 mph - N/A   Scattered Clouds
7:55 AM 60.8 °F 53.6 °F 77% 30.12 in 6.2 mi East 6.9 mph - N/A   Scattered Clouds
8:00 AM 61 °F 54 °F 72% 30.15 in 9 mi East 6.9 mph - -   Partly Cloudy
8:55 AM 64.4 °F 55.4 °F 73% 30.15 in 6.2 mi East 8.1 mph - N/A   Scattered Clouds
9:55 AM 66.2 °F 55.4 °F 68% 30.15 in 6.2 mi East 10.4 mph - N/A   Partly Cloudy
10:55 AM 69.8 °F 57.2 °F 64% 30.18 in 6.2 mi ESE 9.2 mph - N/A   Partly Cloudy
11:00 AM 69 °F 58 °F 60% 30.20 in 12 mi ESE 9.2 mph - -   Scattered Clouds
11:55 AM 71.6 °F 59.0 °F 64% 30.21 in 6.2 mi SSE 8.1 mph - N/A   Partly Cloudy
12:55 PM 71.6 °F 60.8 °F 69% 30.21 in 6.2 mi SSE 6.9 mph - N/A   Partly Cloudy
1:55 PM 71.6 °F 59.0 °F 64% 30.18 in 6.2 mi South 8.1 mph - N/A   Partly Cloudy
2:00 PM 72 °F 59 °F 54% 30.21 in 16 mi South 8.1 mph - -   Scattered Clouds
2:55 PM 71.6 °F 59.0 °F 64% 30.18 in 6.2 mi South 9.2 mph - N/A   Unknown
3:55 PM 71.6 °F 60.8 °F 69% 30.18 in 6.2 mi South 9.2 mph - N/A   Partly Cloudy
4:55 PM 71.6 °F 59.0 °F 64% 30.15 in - South 6.9 mph - N/A   Clear
5:00 PM 71 °F 59 °F 57% 30.18 in 16 mi South 6.9 mph - -  
5:55 PM 69.8 °F 59.0 °F 68% 30.15 in - South 5.8 mph - N/A   Clear
6:55 PM 66.2 °F 59.0 °F 78% 30.15 in 6.2 mi South 2.3 mph - N/A   Partly Cloudy
7:55 PM 62.6 °F 59.0 °F 88% 30.15 in 6.2 mi NE 2.3 mph - N/A   Partly Cloudy
8:00 PM 62 °F 58 °F 84% 30.18 in 7 mi NE 2.3 mph - -   Scattered Clouds
8:55 PM 60.8 °F 57.2 °F 88% 30.18 in - ENE 2.3 mph - N/A   Clear
9:55 PM 59.0 °F 55.4 °F 88% 30.18 in - NE 3.5 mph - N/A   Clear
10:55 PM 60.8 °F 57.2 °F 88% 30.18 in - NNE 4.6 mph - N/A   Clear
11:00 PM 61 °F 56 °F 80% 30.20 in 7 mi NNE 4.6 mph - -  
11:55 PM 60.8 °F 57.2 °F 88% 30.15 in - NE 4.6 mph - N/A   Clear